Location: Einum
(52.1628°N, 10.0142°E)
Time: 04:20:01
(UTC+00:00)

Daily predictions for brighter satellites

Satellite Brightness Start Highest point End
(mag) Time Altitude Azimuth Time Altitude Azimuth Time Altitude Azimuth
ATLAS 3B R/B 4.3 02:27:10 31° NNE 02:27:10 31° NNE 02:32:04 10° ENE
ACS3 Solar Sail 4.3 02:28:17 10° NNE 02:28:39 12° NNE 02:28:39 12° NNE
Cosmos 2322 Rocket 4.3 02:50:36 21° NE 02:50:36 21° NE 02:54:20 10° E
NOSS 3-1 (A) 4.4 03:09:52 50° NNE 03:09:52 50° NNE 03:17:44 10° ESE
SL-16 R/B 3.4 03:19:10 39° ENE 03:19:10 39° ENE 03:23:55 10° ESE
Cosmos 2082 Rocket 3.2 03:23:08 42° E 03:23:08 42° E 03:27:55 10° NE
USA 234 3.5 03:22:54 10° ENE 03:28:36 61° NNE 03:28:36 61° NNE
SeaSat 1 4.4 03:26:07 10° NNE 03:27:52 23° NNE 03:27:52 23° NNE
CZ-2C R/B 4.5 03:32:29 10° NNE 03:34:03 20° NNE 03:34:03 20° NNE
Cosmos 2278 4.4 03:42:22 48° NE 03:42:47 49° NE 03:48:15 10° SE
NOSS 3-1 (C) 3.7 03:52:29 74° W 03:53:05 79° SW 04:01:43 10° SE
Timation 1 Rocket 4.3 03:56:01 72° NNE 03:56:01 72° NNE 04:01:23 10° NNE
Cosmos 841 Rocket 4.1 04:00:24 36° SSE 04:02:19 56° ESE 04:07:28 10° NNE
COSMOS 2455 3.6 04:07:00 39° S 04:07:00 39° S 04:10:57 10° SSE
Cosmos 2360 Rocket 2.9 04:09:26 33° N 04:11:32 48° NE 04:16:57 10° SE
Cosmos 2333 Rocket 2.5 04:11:00 47° N 04:12:36 67° NE 04:18:19 10° SE
ACS3 Solar Sail 3.8 04:11:54 10° N 04:12:40 13° N 04:12:40 13° N
ATLAS 3B R/B 3.8 04:14:24 29° NNW 04:17:36 41° NNE 04:24:49 10° E
Nadezhda 4 Rocket 3.9 04:13:02 10° S 04:19:20 88° ESE 04:25:39 10° N
Cosmos 2237 Rocket 4.4 04:18:19 12° N 04:20:42 15° NNE 04:23:49 10° NE
NOSS 3-4 (A) 4.0 04:23:03 38° NNW 04:23:03 38° NNW 04:28:49 10° NE
NOSS 3-4 (C) 4.0 04:23:12 38° NNW 04:23:12 38° NNW 04:28:59 10° NE
Cosmos 1892 Rocket 4.2 04:19:53 10° S 04:24:09 55° E 04:28:28 10° NNE
Cosmos-2242 3.8 04:24:05 30° NNE 04:25:50 49° ENE 04:29:56 10° SSE
ADEOS Rocket 4.4 04:22:12 10° N 04:27:21 30° NW 04:27:21 30° NW
Cosmos 2219 Rocket 3.2 04:25:49 23° N 04:28:59 42° NE 04:34:19 10° ESE
Cosmos 220 Rocket 4.1 04:29:35 65° NE 04:29:35 65° NE 04:33:11 10° NNE
COSMO-SKYMED 1 2.5 04:28:05 10° SSE 04:32:11 75° ENE 04:32:39 66° NNE
IRS-1D 3.6 04:27:42 10° NNE 04:32:43 73° ESE 04:37:47 10° S
Cosmos 468 Rocket 4.4 04:33:47 44° NNW 04:33:47 44° NNW 04:37:49 10° NNE
Meteor 2-20 4.4 04:28:06 10° N 04:34:16 86° E 04:40:21 10° S
Cosmos 2322 Rocket 2.3 04:32:25 33° NNW 04:35:02 73° ENE 04:40:42 10° SE
Orbus 7S? 3.5 04:48:22 45° ESE 04:48:22 45° ESE 04:50:18 10° ESE
Cosmos 1937 Rocket 4.0 04:49:25 37° SW 04:49:25 37° SW 04:53:22 10° S
USA 59 Rocket 2.1 04:54:18 14° SSW 04:54:18 14° SSW 04:55:35 10° SSW
Cosmos 2333 4.4 04:49:16 24° NNW 04:52:51 73° ENE 04:58:32 10° SE
BREEZE-M DEB (TANK) 4.2 04:55:04 17° SE 04:55:04 17° SE 04:55:45 10° SE
Meteor 1-26 Rocket 4.1 04:49:15 13° NNW 04:54:12 84° W 04:59:53 10° S
Cosmos 1833 Rocket 4.1 04:55:08 20° NNW 04:55:08 20° NNW 04:58:43 10° NNE
Cosmos 1484 Rocket 3.9 04:51:41 10° NNE 04:54:56 39° E 04:58:07 10° S
Meteor 2-3 Rocket 3.6 04:49:25 10° SSW 04:55:09 78° WNW 05:00:51 10° N
Meteor 2-20 Rocket 4.2 04:50:14 10° N 04:56:03 89° E 05:01:46 10° S
Cosmos 2058 Rocket 2.9 04:54:41 28° NNW 04:56:58 79° W 05:01:21 10° S
SKYMED 2 4.0 04:56:34 10° S 05:00:14 40° WSW 05:00:14 40° WSW
COSMOS 2406 3.1 04:55:21 10° SW 05:01:01 74° WNW 05:06:44 10° NNE
NOSS 3-1 (A) 4.0 04:57:15 30° NW 05:01:05 67° SW 05:09:44 10° SSE
SL-16 R/B 2.4 05:01:03 36° WNW 05:02:50 48° WSW 05:08:14 10° S
COSMOS 2428 4.1 05:01:17 12° NNW 05:05:55 34° NE 05:11:05 10° ESE
CZ-4 R/B 3.6 05:01:34 10° NNE 05:06:12 68° WNW 05:10:46 10° SSW
Cosmos 2082 Rocket 2.5 05:05:01 34° W 05:06:45 43° NW 05:12:06 10° NNE
SeaSat 1 3.7 05:04:04 10° NNE 05:07:30 24° NNW 05:07:30 24° NNW
Cosmos 1627 Rocket 4.3 05:03:51 10° SSW 05:09:58 75° WNW 05:16:09 10° N
ATLAS 5 CENTAUR R/B 2.9 05:10:38 17° N 05:10:38 17° N 05:12:40 10° NNE
USA 234 3.5 05:05:39 10° E 05:12:05 61° N 05:15:57 25° WNW
Okean 1 2.9 05:11:24 45° NW 05:12:17 63° W 05:15:48 10° S
BREEZE-M DEB (TANK) 3.4 05:12:02 35° SW 05:12:43 44° S 05:14:55 10° E
CZ-2C R/B 4.1 05:11:16 10° N 05:13:16 18° NNW 05:13:16 18° NNW
NOAA 12 4.1 05:11:17 10° N 05:16:30 59° WNW 05:21:39 10° SSW
Helios 1A Rocket 3.3 05:13:29 10° SSW 05:15:55 32° SW 05:15:55 32° SW
DMSP B5D1-3 4.4 05:15:10 10° S 05:20:17 73° WSW 05:25:25 10° NNW
IRIDIUM 114 4.5 05:16:08 10° S 05:21:19 76° E 05:26:34 10° N
Cosmos 2285 Rocket 4.0 05:17:03 13° NNW 05:22:47 76° WSW 05:29:10 10° SSE
BREEZE-M DEB (TANK) 3.1 05:23:26 32° WSW 05:24:30 58° S 05:29:34 10° E
USA 229 4.3 05:20:07 18° NW 05:25:36 60° NE 05:33:28 10° ESE
USA 229 DEB 4.3 05:20:12 18° NW 05:25:41 60° NE 05:33:33 10° ESE
BREEZE-M DEB (TANK) 3.8 05:24:35 19° SW 05:26:21 31° S 05:32:04 10° ESE
Cosmos 2278 4.2 05:24:16 25° WNW 05:26:48 37° WSW 05:31:55 10° S
SL-4 R/B 2.1 05:28:33 31° WSW 05:29:32 41° SSW 05:32:33 10° SE
IRIDIUM 103 4.3 05:25:15 10° S 05:30:29 89° E 05:35:45 10° N
Cosmos 2151 4.0 05:28:29 10° SSE 05:32:23 46° E 05:36:20 10° NNE
Cosmos 1758 Rocket 3.7 05:29:45 10° S 05:34:10 79° E 05:38:34 10° NNE
Cosmos 2221 2.6 05:30:30 10° N 05:34:40 75° ENE 05:38:47 10° SSE
Cosmos 2026 Rocket 4.1 05:29:20 10° SSW 05:35:12 50° WNW 05:41:09 10° N
Thor Agena Rocket 4.1 05:33:39 10° NNE 05:38:41 61° ESE 05:43:38 10° S
Cosmos 1238 Rocket 3.9 05:39:01 10° N 05:41:35 29° ENE 05:44:07 10° SE
SL-16 R/B 4.3 05:39:12 10° NNW 05:42:45 17° NNE 05:46:18 10° ENE
Cosmos 405 Rocket 2.1 05:40:36 10° SSW 05:43:52 72° WNW 05:47:09 10° N
Cosmos 841 Rocket 4.3 05:40:31 13° WSW 05:44:26 30° NW 05:49:05 10° NNE
Cosmos 1707 2.7 05:42:11 10° N 05:45:19 59° ENE 05:48:24 10° SSE
IRIDIUM 106 4.3 05:43:39 10° SSW 05:48:50 67° W 05:54:04 10° N
Cosmos 158 Rocket 4.0 05:44:18 10° SSW 05:49:37 90° SSE 05:54:52 10° NNE
KORONAS-FOTON 3.6 05:49:31 10° N 05:52:55 77° E 05:56:16 10° SSE
Cosmos 2360 Rocket 2.8 05:51:12 15° NW 05:55:25 37° WSW 06:00:31 10° S
S3M 4.0 05:49:11 10° N 05:55:27 87° E 06:01:35 10° S
Cosmos 2333 Rocket 3.2 05:53:03 16° WNW 05:56:27 27° WSW 06:01:11 10° SSW
Cosmos 1553 Rocket 4.2 05:50:47 10° NNW 05:56:55 50° W 06:03:03 10° SSW
Cosmos 1626 Rocket 3.6 05:52:52 10° SSW 05:57:12 55° WNW 06:01:33 10° N
SMAP 3.1 05:54:23 10° NNE 05:59:05 87° ESE 06:03:44 10° SSW
Cosmos 1833 4.3 05:55:57 10° SSW 06:01:37 87° ESE 06:07:22 10° NNE
Cosmos 1092 Rocket 4.4 05:56:28 10° SW 06:02:15 38° WNW 06:08:01 10° N
Cosmos-2242 4.3 06:00:27 14° NW 06:02:32 20° W 06:05:38 10° SW
Cosmos 1842 3.1 06:00:13 10° N 06:03:33 71° ENE 06:06:52 10° SSE
SL-08 R/B 3.8 05:59:20 10° SSE 06:03:52 61° ENE 06:08:32 10° N
Landsat 7 3.9 05:59:40 10° NNE 06:04:22 81° ESE 06:09:01 10° SSW
Cosmos 2237 Rocket 3.3 06:01:08 10° NNW 06:06:25 39° NE 06:11:40 10° ESE
Cosmos 1125 Rocket 3.6 06:02:12 10° NNW 06:07:26 65° WSW 06:12:35 10° S
COSMO-SKYMED 1 4.2 06:05:50 10° WSW 06:08:02 14° W 06:08:59 13° WNW
ATLAS 3B R/B 3.1 06:01:38 11° NW 06:09:27 80° NE 06:17:03 10° SE
Meteor 1-10 Rocket 4.3 06:03:44 10° NNW 06:09:38 75° W 06:15:33 10° S
Cosmos 2219 Rocket 2.6 06:07:37 10° NW 06:12:59 44° WSW 06:18:17 10° S
Meteor 1-19 Rocket 4.4 06:09:18 10° NNW 06:15:00 65° W 06:20:51 10° S
NOSS 0 Rocket 4.2 06:10:47 10° NNW 06:17:01 71° NE 06:23:15 10° SE
Cosmos 2322 Rocket 3.4 06:14:14 11° NW 06:18:31 24° WSW 06:22:56 10° SSW
BREEZE-M DEB (TANK) 4.0 06:05:27 10° W 06:21:27 73° S 06:25:32 10° ESE
IGS 5A 4.2 06:22:57 10° N 06:26:24 28° WNW 06:29:49 10° SW
Cosmos 1812 Rocket 4.1 06:22:42 10° NNW 06:26:40 36° W 06:30:37 10° SSW
Okean 1-7 Rocket 3.6 06:22:27 10° SSW 06:26:57 72° WNW 06:31:26 10° N
Cosmos 1484 Rocket 3.8 06:25:06 10° NNW 06:27:35 19° WNW 06:30:03 10° WSW
YAOGAN 11 4.1 06:23:18 10° SSE 06:27:39 84° WSW 06:31:59 10° NNW
Cosmos 2322 3.7 06:22:35 10° NNW 06:28:15 75° WSW 06:33:53 10° SSE
SJ-12 3.8 06:27:35 10° N 06:31:21 59° WNW 06:35:06 10° SSW
Cosmos 1437 Rocket 3.3 06:29:49 10° NNW 06:32:54 30° W 06:35:59 10° SSW
Cosmos 2266 Rocket 4.1 06:27:08 10° SSW 06:33:28 64° WNW 06:39:45 10° N
Cosmos 1602 Rocket 4.0 06:31:32 10° SW 06:35:46 43° WNW 06:40:02 10° N
ATLAS 2AS CENTAUR R/B 2.9 06:30:10 10° SW 06:37:13 82° SE 06:44:05 10° NE
Cosmos 1818 4.1 06:33:23 10° NW 06:38:44 54° NE 06:44:04 10° ESE
ARIANE 5 R/B 2.6 06:34:48 10° N 06:39:58 66° WNW 06:45:08 10° SSW
